Weather in Medford

United States     42°20′07″N   122°52′45″W
temp.,
°C
wind,
m/s
gust,
m/s
humid.,
%
clouds,
%
prec.,
mm/h
press.,
hPa
HPBL,
m
23 may, mon
mon2323:00+9ssw11589 0.0 102316
02:00+9s116382 0.0 102320
05:00+7s117427 0.0 102314
08:00+11ne0160100 0.0 1023251
11:00+18n2240100 0.0 10201014
14:00+22n233138 0.0 10191838
17:00+22nnw442844 0.0 10172049
20:00+15n24565 0.0 1018150
24 may, tue
tue2423:00+10ssw11750 0.0 102013
02:00+8sse118626 0.0 102014
05:00+7s11935 0.0 102014
08:00+12ne11695 0.0 1019287
11:00+20n213111 0.0 1017804
14:00+24n2327100 0.0 10161526
17:00+24nw2332100 0.0 10141796
20:00+19n11575 0.0 101436
25 may, wed
wed2523:00+14s11749 0.0 101616
02:00+11s118352 0.0 101613
05:00+10s11905 0.0 101612
08:00+15nne11675 0.0 1015258
11:00+23n21415 0.0 1013829
14:00+27n32225 0.0 10111763
17:00+28nnw222127 0.0 10091941
20:00+20nne1247100 0.0 100923
26 may, thu
thu2623:00+15s1162100 0.0 101116
02:00+13s1168100 0.0 101013
05:00+12ssw1174100 0.0 101013
08:00+16nw1163100 0.0 1011257
11:00+20nnw2351100 0.0 1011996
14:00+23wnw2629100 0.0 10102386
17:00+22wnw453391 0.0 10101277
20:00+16wnw2454100 0.0 1012246
27 may, fri
fri2723:00+11sw11773 0.0 101522
02:00+8ssw1189100 0.0 101731
05:00+8s1186100 0.0 101720
08:00+12ne1168100 0.0 1016313
11:00+17n2246100 0.0 10151192
14:00+19n3435100 0.0 10141912
17:00+18nnw2237100 0.0 10121440
20:00+14wnw1256100 0.0 1012147